| time (UTC) | temp F | wind direction | speed MPH | gust MPH | rain 1hr in | rain 24hr in | rain mn in | humidity % | barometer mb |
| 20260509201541 | 72 | 282 | 0.0 | 5.0 | 0.00 | 0.00 | 0.00 | 35 | 1017.6 |
| 20260509200040 | 73 | 33 | 3.0 | 10.0 | 0.00 | 0.00 | 0.00 | 35 | 1017.9 |
| 20260509194535 | 72 | 136 | 0.0 | 7.0 | 0.00 | 0.00 | 0.00 | 37 | 1018.2 |
| 20260509193033 | 71 | 145 | 1.0 | 6.0 | 0.00 | 0.00 | 0.00 | 35 | 1018.4 |
| 20260509191542 | 71 | 74 | 3.0 | 6.0 | 0.00 | 0.00 | 0.00 | 35 | 1018.6 |
| 20260509190029 | 69 | 356 | 4.0 | 9.0 | 0.00 | 0.00 | 0.00 | 39 | 1018.7 |
| 20260509184534 | 69 | 120 | 2.0 | 6.0 | 0.00 | 0.00 | 0.00 | 39 | 1018.8 |
| 20260509183029 | 68 | 32 | 0.0 | 6.0 | 0.00 | 0.00 | 0.00 | 40 | 1019.0 |
| 20260509181519 | 67 | 166 | 2.0 | 7.0 | 0.00 | 0.00 | 0.00 | 40 | 1019.2 |
| 20260509180018 | 67 | 274 | 0.0 | 4.0 | 0.00 | 0.00 | 0.00 | 41 | 1019.1 |
| 20260509174520 | 66 | 32 | 4.0 | 8.0 | 0.00 | 0.00 | 0.00 | 43 | 1019.1 |
| 20260509173010 | 65 | 75 | 4.0 | 7.0 | 0.00 | 0.00 | 0.00 | 46 | 1019.3 |
| 20260509171509 | 63 | 78 | 2.0 | 7.0 | 0.00 | 0.00 | 0.00 | 48 | 1019.4 |
| 20260509170009 | 63 | 16 | 3.0 | 6.0 | 0.00 | 0.00 | 0.00 | 51 | 1019.5 |
| 20260509164503 | 62 | 87 | 3.0 | 6.0 | 0.00 | 0.00 | 0.00 | 53 | 1019.6 |
| 20260509163110 | 61 | 76 | 3.0 | 5.0 | 0.00 | 0.00 | 0.00 | 55 | 1019.8 |
| 20260509161559 | 60 | 120 | 0.0 | 3.0 | 0.00 | 0.00 | 0.00 | 57 | 1020.0 |
| 20260509160056 | 60 | 267 | 0.0 | 0.0 | 0.00 | 0.00 | 0.00 | 57 | 1019.9 |
| 20260509154553 | 57 | 30 | 0.0 | 3.0 | 0.00 | 0.00 | 0.00 | 60 | 1020.0 |
| 20260509153103 | 56 | 110 | 1.0 | 3.0 | 0.00 | 0.00 | 0.00 | 61 | 1020.1 |
| 20260509151549 | 56 | 172 | 0.0 | 1.0 | 0.00 | 0.00 | 0.00 | 62 | 1020.1 |
| 20260509150044 | 54 | 88 | 0.0 | 2.0 | 0.00 | 0.00 | 0.00 | 66 | 1020.2 |
| 20260509144543 | 54 | 78 | 0.0 | 0.0 | 0.00 | 0.00 | 0.00 | 67 | 1020.3 |
| 20260509143041 | 51 | 242 | 0.0 | 0.0 | 0.00 | 0.00 | 0.00 | 70 | 1020.1 |
| 20260509141541 | 49 | 258 | 0.0 | 0.0 | 0.00 | 0.00 | 0.00 | 75 | 1020.1 |
| 20260509140039 | 47 | 326 | 0.0 | 0.0 | 0.00 | 0.00 | 0.00 | 79 | 1020.0 |
| 20260509134539 | 46 | 326 | 0.0 | 0.0 | 0.00 | 0.00 | 0.00 | 80 | 1020.1 |
| 20260509133036 | 0 | 0.0 | 0.0 | 0.00 | 0.00 | 0.00 | 1020.1 | ||
| 20260509131533 | 0 | 0.0 | 0.0 | 0.00 | 0.00 | 0.00 | 1020.0 | ||
| 20260509130037 | 0 | 0.0 | 0.0 | 0.00 | 0.09 | 0.00 | 1019.5 | ||
| 20260509124538 | 0 | 0.0 | 0.0 | 0.00 | 0.09 | 0.00 | 1019.5 | ||
| 20260509123026 | 45 | 291 | 1.0 | 2.0 | 0.00 | 0.09 | 0.00 | 79 | 1019.6 |
| 20260509121526 | 45 | 324 | 1.0 | 3.0 | 0.00 | 0.09 | 0.00 | 80 | 1019.6 |
| 20260509120022 | 47 | 296 | 0.0 | 4.0 | 0.00 | 0.09 | 0.00 | 77 | 1019.5 |
| 20260509114522 | 47 | 224 | 1.0 | 4.0 | 0.00 | 0.09 | 0.00 | 77 | 1019.5 |
| 20260509113024 | 45 | 240 | 0.0 | 3.0 | 0.00 | 0.09 | 0.00 | 79 | 1019.4 |
| 20260509111518 | 48 | 231 | 0.0 | 3.0 | 0.00 | 0.09 | 0.00 | 73 | 1019.4 |
| 20260509110017 | 50 | 256 | 4.0 | 8.0 | 0.00 | 0.09 | 0.00 | 72 | 1019.4 |
| 20260509104552 | 49 | 173 | 0.0 | 5.0 | 0.00 | 0.09 | 0.00 | 73 | 1019.6 |
| 20260509103015 | 50 | 290 | 2.0 | 8.0 | 0.00 | 0.09 | 0.00 | 73 | 1019.5 |
| 20260509101521 | 49 | 272 | 4.0 | 8.0 | 0.00 | 0.09 | 0.00 | 75 | 1019.3 |
| 20260509100012 | 47 | 281 | 1.0 | 2.0 | 0.00 | 0.09 | 0.00 | 79 | 1019.5 |
| 20260509094511 | 47 | 282 | 2.0 | 4.0 | 0.00 | 0.09 | 0.00 | 78 | 1019.6 |
| 20260509093010 | 48 | 285 | 3.0 | 6.0 | 0.00 | 0.09 | 0.00 | 78 | 1019.6 |
| 20260509091510 | 46 | 280 | 2.0 | 4.0 | 0.00 | 0.09 | 0.00 | 80 | 1019.7 |
| 20260509090005 | 48 | 278 | 2.0 | 5.0 | 0.00 | 0.09 | 0.00 | 77 | 1019.8 |
| 20260509084501 | 49 | 306 | 2.0 | 6.0 | 0.00 | 0.09 | 0.00 | 75 | 1019.8 |
| 20260509083103 | 50 | 282 | 4.0 | 9.0 | 0.00 | 0.09 | 0.00 | 74 | 1019.8 |
| 20260509081556 | 50 | 259 | 3.0 | 11.0 | 0.00 | 0.09 | 0.00 | 73 | 1020.0 |
| 20260509080056 | 50 | 269 | 5.0 | 9.0 | 0.00 | 0.09 | 0.00 | 73 | 1019.9 |
| 20260509074554 | 52 | 274 | 7.0 | 9.0 | 0.00 | 0.09 | 0.00 | 70 | 1020.1 |
| 20260509073051 | 52 | 278 | 3.0 | 6.0 | 0.00 | 0.09 | 0.00 | 68 | 1020.0 |
| 20260509071545 | 53 | 295 | 1.0 | 7.0 | 0.00 | 0.09 | 0.00 | 67 | 1020.1 |
| 20260509070040 | 53 | 338 | 4.0 | 9.0 | 0.00 | 0.09 | 0.00 | 68 | 1019.9 |
| 20260509064533 | 52 | 314 | 4.0 | 9.0 | 0.00 | 0.09 | 0.09 | 68 | 1019.8 |
| 20260509063029 | 53 | 280 | 5.0 | 8.0 | 0.00 | 0.09 | 0.09 | 67 | 1019.7 |
| 20260509061525 | 53 | 291 | 4.0 | 9.0 | 0.00 | 0.09 | 0.09 | 66 | 1019.7 |
| 20260509060022 | 53 | 301 | 3.0 | 6.0 | 0.00 | 0.09 | 0.09 | 65 | 1019.6 |
| 20260509054516 | 54 | 272 | 4.0 | 9.0 | 0.00 | 0.09 | 0.09 | 65 | 1019.6 |
| 20260509053011 | 54 | 288 | 5.0 | 10.0 | 0.00 | 0.09 | 0.09 | 63 | 1019.6 |
| 20260509051506 | 54 | 284 | 7.0 | 12.0 | 0.00 | 0.09 | 0.09 | 63 | 1019.5 |
| 20260509050002 | 55 | 268 | 5.0 | 9.0 | 0.00 | 0.09 | 0.09 | 61 | 1019.4 |
| 20260509044656 | 56 | 276 | 6.0 | 10.0 | 0.00 | 0.09 | 0.09 | 59 | 1019.1 |
| 20260509043137 | 56 | 275 | 6.0 | 11.0 | 0.00 | 0.09 | 0.09 | 58 | 1018.9 |
| 20260509041549 | 57 | 278 | 7.0 | 15.0 | 0.00 | 0.09 | 0.09 | 57 | 1018.9 |
| 20260509040045 | 57 | 266 | 11.0 | 16.0 | 0.00 | 0.09 | 0.09 | 55 | 1018.7 |
| 20260509034542 | 58 | 245 | 12.0 | 18.0 | 0.00 | 0.09 | 0.09 | 53 | 1018.3 |
| 20260509033035 | 59 | 275 | 9.0 | 18.0 | 0.00 | 0.09 | 0.09 | 52 | 1018.1 |
| 20260509031548 | 59 | 282 | 7.0 | 17.0 | 0.00 | 0.09 | 0.09 | 50 | 1017.9 |
| 20260509030042 | 61 | 278 | 9.0 | 17.0 | 0.00 | 0.09 | 0.09 | 48 | 1017.7 |
| 20260509024522 | 62 | 283 | 10.0 | 18.0 | 0.00 | 0.09 | 0.09 | 46 | 1017.4 |
| 20260509023018 | 63 | 293 | 13.0 | 20.0 | 0.00 | 0.09 | 0.09 | 44 | 1017.3 |
| 20260509021513 | 63 | 288 | 14.0 | 23.0 | 0.00 | 0.09 | 0.09 | 43 | 1017.2 |
| 20260509020007 | 65 | 286 | 13.0 | 20.0 | 0.00 | 0.09 | 0.09 | 41 | 1017.1 |
| 20260509014502 | 65 | 280 | 13.0 | 22.0 | 0.00 | 0.09 | 0.09 | 41 | 1017.1 |
| 20260509013101 | 66 | 292 | 15.0 | 21.0 | 0.00 | 0.09 | 0.09 | 40 | 1016.9 |
| 20260509011557 | 66 | 282 | 17.0 | 25.0 | 0.00 | 0.09 | 0.09 | 39 | 1016.9 |
| 20260509010048 | 68 | 287 | 15.0 | 24.0 | 0.00 | 0.09 | 0.09 | 38 | 1016.8 |
| 20260509004554 | 68 | 290 | 15.0 | 22.0 | 0.00 | 0.09 | 0.09 | 38 | 1016.7 |
| 20260509003050 | 69 | 293 | 15.0 | 22.0 | 0.00 | 0.09 | 0.09 | 36 | 1016.6 |
| 20260509001537 | 69 | 293 | 14.0 | 21.0 | 0.00 | 0.09 | 0.09 | 36 | 1016.5 |
| 20260509000030 | 69 | 279 | 13.0 | 24.0 | 0.00 | 0.09 | 0.09 | 35 | 1016.3 |
| 20260508234526 | 69 | 296 | 16.0 | 29.0 | 0.00 | 0.09 | 0.09 | 35 | 1016.4 |
| 20260508233022 | 70 | 285 | 17.0 | 26.0 | 0.00 | 0.09 | 0.09 | 33 | 1016.4 |
| 20260508231517 | 70 | 305 | 17.0 | 29.0 | 0.00 | 0.09 | 0.09 | 33 | 1016.3 |
| 20260508230012 | 70 | 307 | 16.0 | 24.0 | 0.00 | 0.09 | 0.09 | 33 | 1016.3 |
| 20260508224508 | 71 | 309 | 13.0 | 21.0 | 0.00 | 0.09 | 0.09 | 32 | 1016.2 |
| 20260508223004 | 71 | 305 | 10.0 | 19.0 | 0.00 | 0.09 | 0.09 | 32 | 1016.2 |
| 20260508221600 | 71 | 295 | 12.0 | 19.0 | 0.00 | 0.09 | 0.09 | 30 | 1016.3 |
| 20260508220056 | 71 | 294 | 11.0 | 17.0 | 0.00 | 0.09 | 0.09 | 30 | 1016.3 |
| 20260508214551 | 72 | 287 | 9.0 | 17.0 | 0.00 | 0.09 | 0.09 | 27 | 1016.3 |
| 20260508213045 | 72 | 290 | 13.0 | 20.0 | 0.00 | 0.09 | 0.09 | 28 | 1016.2 |
| 20260508211545 | 71 | 299 | 8.0 | 17.0 | 0.00 | 0.09 | 0.09 | 26 | 1016.1 |
| 20260508210140 | 71 | 293 | 9.0 | 17.0 | 0.00 | 0.09 | 0.09 | 25 | 1016.2 |
| 20260508204534 | 70 | 307 | 8.0 | 15.0 | 0.00 | 0.09 | 0.09 | 25 | 1016.0 |
| 20260508203028 | 70 | 303 | 7.0 | 19.0 | 0.00 | 0.09 | 0.09 | 26 | 1016.0 |